Stündliche Wetter Abasnurskiy

Heute, 4 März, Donnerstag

Zeit Temperatur Niederschläge Wind Luftdruck Luftfeuchtigkeit
00:00 -9°C° 0.2 mm 4 m/S 737 mmHg 95%
01:00 -9°C° 0.2 mm 4 m/S 737 mmHg 95%
02:00 -9°C° 0.2 mm 4 m/S 736 mmHg 95%
03:00 -8°C° 0.2 mm 4 m/S 736 mmHg 95%
04:00 -8°C° 0.1 mm 4 m/S 735 mmHg 95%
05:00 -7°C° 0.1 mm 4 m/S 735 mmHg 95%
06:00 -7°C° 0.1 mm 4 m/S 734 mmHg 95%
07:00 -6°C° 0.1 mm 5 m/S 733 mmHg 94%
08:00 -6°C° 0.1 mm 5 m/S 733 mmHg 94%
09:00 -5°C° 0.1 mm 5 m/S 732 mmHg 93%
10:00 -5°C° 0.4 mm 6 m/S 731 mmHg 94%
11:00 -5°C° 0.4 mm 6 m/S 730 mmHg 95%
12:00 -4°C° 0.4 mm 6 m/S 729 mmHg 96%
13:00 -4°C° 0.8 mm 6 m/S 729 mmHg 96%
14:00 -3°C° 0.8 mm 7 m/S 728 mmHg 96%
15:00 -3°C° 0.8 mm 7 m/S 727 mmHg 97%
16:00 -4°C° 0.3 mm 7 m/S 728 mmHg 92%
17:00 -6°C° 0.3 mm 7 m/S 728 mmHg 86%
18:00 -7°C° 0.3 mm 7 m/S 728 mmHg 81%
19:00 -7°C° 0.1 mm 7 m/S 729 mmHg 83%
20:00 -8°C° 0.1 mm 8 m/S 730 mmHg 86%
21:00 -8°C° 0.1 mm 8 m/S 731 mmHg 88%
22:00 -9°C° 0 mm 7 m/S 731 mmHg 89%
23:00 -11°C° 0 mm 6 m/S 732 mmHg 90%

Morgen, 5 März, Freitag

Zeit Temperatur Niederschläge Wind Luftdruck Luftfeuchtigkeit
00:00 -11°C° 0 mm 4 m/S 733 mmHg 92%
01:00 -12°C° 0 mm 4 m/S 734 mmHg 93%
02:00 -13°C° 0 mm 3 m/S 734 mmHg 95%
03:00 -15°C° 0 mm 3 m/S 735 mmHg 96%
04:00 -16°C° 0 mm 3 m/S 736 mmHg 96%
05:00 -16°C° 0 mm 2 m/S 736 mmHg 96%
06:00 -17°C° 0 mm 2 m/S 737 mmHg 96%
07:00 -17°C° 0 mm 2 m/S 737 mmHg 94%
08:00 -16°C° 0 mm 2 m/S 738 mmHg 92%
09:00 -15°C° 0 mm 2 m/S 738 mmHg 91%
10:00 -13°C° 0 mm 2 m/S 739 mmHg 88%
11:00 -12°C° 0 mm 2 m/S 739 mmHg 85%
12:00 -9°C° 0 mm 2 m/S 739 mmHg 82%
13:00 -9°C° 0 mm 2 m/S 740 mmHg 83%
14:00 -9°C° 0 mm 3 m/S 740 mmHg 84%
15:00 -9°C° 0 mm 3 m/S 740 mmHg 85%
16:00 -9°C° 0 mm 3 m/S 740 mmHg 88%
17:00 -10°C° 0 mm 3 m/S 741 mmHg 91%
18:00 -9°C° 0 mm 2 m/S 741 mmHg 95%
19:00 -10°C° 0.1 mm 2 m/S 741 mmHg 95%
20:00 -12°C° 0.1 mm 3 m/S 742 mmHg 95%
21:00 -13°C° 0.1 mm 3 m/S 742 mmHg 96%
22:00 -13°C° 0.1 mm 3 m/S 742 mmHg 96%
23:00 -12°C° 0.1 mm 2 m/S 743 mmHg 96%

übermorgen, 6 März, Samstag

Zeit Temperatur Niederschläge Wind Luftdruck Luftfeuchtigkeit
00:00 -13°C° 0.1 mm 2 m/S 743 mmHg 96%
01:00 -14°C° 0 mm 2 m/S 743 mmHg 96%
02:00 -13°C° 0 mm 1 m/S 743 mmHg 96%
03:00 -13°C° 0 mm 1 m/S 744 mmHg 97%
04:00 -14°C° 0 mm 1 m/S 744 mmHg 96%
05:00 -14°C° 0 mm 1 m/S 744 mmHg 96%
06:00 -14°C° 0 mm 1 m/S 744 mmHg 96%
07:00 -14°C° 0 mm 1 m/S 744 mmHg 95%
08:00 -16°C° 0 mm 2 m/S 744 mmHg 94%
09:00 -16°C° 0 mm 2 m/S 745 mmHg 93%
10:00 -15°C° 0 mm 2 m/S 745 mmHg 91%
11:00 -14°C° 0 mm 2 m/S 745 mmHg 88%
12:00 -14°C° 0 mm 2 m/S 745 mmHg 86%
13:00 -14°C° 0 mm 2 m/S 745 mmHg 86%
14:00 -15°C° 0 mm 3 m/S 744 mmHg 86%
15:00 -15°C° 0 mm 3 m/S 744 mmHg 86%
16:00 -17°C° 0 mm 3 m/S 744 mmHg 89%
17:00 -17°C° 0 mm 2 m/S 744 mmHg 91%
18:00 -19°C° 0 mm 2 m/S 744 mmHg 94%
19:00 -20°C° 0 mm 2 m/S 744 mmHg 95%
20:00 -20°C° 0 mm 2 m/S 745 mmHg 96%
21:00 -21°C° 0 mm 2 m/S 745 mmHg 97%
22:00 -21°C° 0 mm 2 m/S 745 mmHg 98%
23:00 -21°C° 0 mm 2 m/S 744 mmHg 98%

7 März, Sonntag

Zeit Temperatur Niederschläge Wind Luftdruck Luftfeuchtigkeit
00:00 -21°C° 0 mm 2 m/S 744 mmHg 98%
01:00 -21°C° 0 mm 2 m/S 744 mmHg 99%
02:00 -21°C° 0 mm 2 m/S 744 mmHg 99%
03:00 -23°C° 0 mm 2 m/S 744 mmHg 99%
04:00 -23°C° 0 mm 2 m/S 744 mmHg 99%
05:00 -23°C° 0 mm 2 m/S 744 mmHg 99%
06:00 -23°C° 0 mm 2 m/S 743 mmHg 99%
07:00 -22°C° 0 mm 3 m/S 743 mmHg 98%
08:00 -21°C° 0 mm 3 m/S 743 mmHg 97%
09:00 -19°C° 0 mm 4 m/S 742 mmHg 96%
10:00 -18°C° 0 mm 4 m/S 742 mmHg 93%
11:00 -17°C° 0 mm 5 m/S 741 mmHg 90%
12:00 -16°C° 0 mm 6 m/S 741 mmHg 87%
13:00 -15°C° 0 mm 6 m/S 740 mmHg 88%
14:00 -15°C° 0 mm 6 m/S 739 mmHg 89%
15:00 -15°C° 0 mm 7 m/S 739 mmHg 90%
16:00 -14°C° 0.3 mm 7 m/S 738 mmHg 91%
17:00 -14°C° 0.3 mm 6 m/S 737 mmHg 92%
18:00 -14°C° 0.3 mm 6 m/S 736 mmHg 93%
19:00 -12°C° 0.5 mm 6 m/S 735 mmHg 93%
20:00 -11°C° 0.5 mm 6 m/S 735 mmHg 93%
21:00 -11°C° 0.5 mm 6 m/S 734 mmHg 94%
22:00 -11°C° 0.5 mm 6 m/S 733 mmHg 94%
23:00 -11°C° 0.5 mm 6 m/S 731 mmHg 94%

8 März, Montag

Zeit Temperatur Niederschläge Wind Luftdruck Luftfeuchtigkeit
00:00 -10°C° 0.5 mm 6 m/S 730 mmHg 94%
01:00 -10°C° 0.4 mm 6 m/S 729 mmHg 94%
02:00 -10°C° 0.4 mm 6 m/S 729 mmHg 94%
03:00 -10°C° 0.4 mm 6 m/S 728 mmHg 94%
04:00 -11°C° 0.3 mm 6 m/S 728 mmHg 93%
05:00 -12°C° 0.3 mm 6 m/S 728 mmHg 91%
06:00 -15°C° 0.3 mm 6 m/S 727 mmHg 90%
07:00 -15°C° 0 mm 6 m/S 728 mmHg 88%
08:00 -15°C° 0 mm 7 m/S 728 mmHg 87%
09:00 -15°C° 0 mm 7 m/S 729 mmHg 85%
10:00 -16°C° 0.3 mm 8 m/S 729 mmHg 87%
11:00 -15°C° 0.3 mm 8 m/S 729 mmHg 90%
12:00 -15°C° 0.3 mm 8 m/S 730 mmHg 92%
13:00 -15°C° 0.5 mm 8 m/S 731 mmHg 92%
14:00 -13°C° 0.5 mm 8 m/S 731 mmHg 92%
15:00 -13°C° 0.5 mm 8 m/S 732 mmHg 92%
16:00 -13°C° 0.3 mm 7 m/S 732 mmHg 92%
17:00 -14°C° 0.3 mm 6 m/S 733 mmHg 93%
18:00 -13°C° 0.3 mm 5 m/S 734 mmHg 93%
19:00 -14°C° 0.1 mm 5 m/S 735 mmHg 93%
20:00 -14°C° 0.1 mm 4 m/S 736 mmHg 93%
21:00 -15°C° 0.1 mm 4 m/S 736 mmHg 93%
22:00 -15°C° 0 mm 3 m/S 737 mmHg 94%
23:00 -17°C° 0 mm 3 m/S 738 mmHg 95%

9 März, Dienstag

Zeit Temperatur Niederschläge Wind Luftdruck Luftfeuchtigkeit
00:00 -18°C° 0 mm 3 m/S 739 mmHg 96%
01:00 -19°C° 0 mm 3 m/S 739 mmHg 97%
02:00 -21°C° 0 mm 3 m/S 740 mmHg 97%
03:00 -20°C° 0 mm 2 m/S 741 mmHg 98%
04:00 -20°C° 0 mm 2 m/S 741 mmHg 98%
05:00 -21°C° 0 mm 2 m/S 742 mmHg 98%
06:00 -23°C° 0 mm 2 m/S 742 mmHg 99%
07:00 -21°C° 0 mm 2 m/S 743 mmHg 98%
08:00 -20°C° 0 mm 2 m/S 743 mmHg 96%
09:00 -21°C° 0 mm 3 m/S 744 mmHg 95%
10:00 -19°C° 0 mm 3 m/S 745 mmHg 94%
11:00 -17°C° 0 mm 3 m/S 745 mmHg 92%
12:00 -16°C° 0 mm 3 m/S 746 mmHg 90%
13:00 -16°C° 0 mm 3 m/S 746 mmHg 90%
14:00 -15°C° 0 mm 3 m/S 747 mmHg 90%
15:00 -15°C° 0 mm 3 m/S 747 mmHg 90%
16:00 -16°C° 0.1 mm 3 m/S 747 mmHg 91%
17:00 -16°C° 0.1 mm 3 m/S 748 mmHg 93%
18:00 -17°C° 0.1 mm 3 m/S 748 mmHg 94%
19:00 -17°C° 0 mm 3 m/S 749 mmHg 94%
20:00 -17°C° 0 mm 3 m/S 749 mmHg 94%
21:00 -18°C° 0 mm 4 m/S 750 mmHg 93%
22:00 -19°C° 0 mm 3 m/S 750 mmHg 94%
23:00 -22°C° 0 mm 3 m/S 751 mmHg 95%
Mehr zeigen

Wir brauchen deine Erlaubnis

Meteoprog und unser Service Anbieter werden persönliche Daten aufbewahren, so wie Cookies, Geräte Bezeichnung oder ähnliche Technologien von deinem Gerät und Prozess, so wie Persönliche Daten Inhalte und Werbungen, genauso wie social Media und den Verkehr zu analysieren.

  • Aufbewahrung und/oder Zugang zu deiner Geräte Informationen.

    Cookies, Geräte Bezeichnung oder andere Informationen, können aufbewahrt oder Zugang zu deinem Gerät erhalten, für den Grund, der oben angegeben wird.

  • Personalisierte Werbung und Inhalte, Messungen, Einblick in das Publikum und Produkt Entwicklung.

    Werbungen und Inhalte können personalisiert werden, basierend auf ein Profil. Mehr Daten können besser personalisierte Werbungen und Inhalte hinzufügen. Werbung und Inhalte können gezeigt und gemessen werden. Einblicke über das Publikum, welche die Werbung gesehen haben und den Inhalt, können abgeleitet werden. So wie Daten können genutzt werden, um es zu verbessern oder die Benutzer Erfahrung zu verbessern das System und die Software.

Wenn du “Ich stimme zu” klickst, erlaubst du uns, die Cookies zu benutzen die Geräte Bezeichnung, den Web oder ähnliche Technologien zu benutzen. Deine Settings, können in deinem Gerät bei deinem Browser geändert werden.

Für den bestimmten Zweck, berechtigten Interessen beruhen darauf, mehr als auf den Inhalt. Du kannst mehr darüber in unseren Privaten und Cookie Politik lesen.